Regional Weather Roundup
Issued by NWS Goodland, KS

Home | Current Version | Previous Version | Text Only | Print | Product List | Glossary Off
Versions: 1 2 3 4 5 6 7 8 9 10 11 12 13 14 15 16 17 18 19 20 21 22 23 24 25 26 27 28 29 30 31 32 33 34 35 36 37 38 39 40 41 42 43 44 45 46 47 48 49 50

000
ASUS43 KGLD 220708
RWRGLD

GOODLAND FORECAST AREA HOURLY WEATHER ROUNDUP
NATIONAL WEATHER SERVICE GOODLAND KS
100 AM MDT FRI SEP 22 2017

...OFFICIAL OBSERVATIONS...

CITY           SKY/WX    TMP DP  RH WIND       PRES   REMARKS
GOODLAND KS    CLEAR     65  44  46 S14       29.71S
HILL CITY KS   CLEAR     81  68  64 S21G31    29.74R
IMPERIAL NEB   CLEAR     70  40  33 S13       29.65S
MCCOOK NEB     LGT RAIN  80  65  59 S23G33    29.67R
AKRON CO       CLEAR     63  23  21 S13       29.68F
BURLINGTON CO  CLEAR     68  39  34 S15       29.73S
LIMON CO       CLEAR     55  23  28 CALM      29.78S
$$

...UNOFFICIAL OBSERVATIONS...

CITY           SKY/WX    TMP DP  RH WIND       PRES   REMARKS
LENORA KS        N/A     79  32  18 MISG        N/A
NORTON KS      CLEAR     79  61  53 S21G29    29.72R
SHARON SPRINGS   N/A     69  48  47 S15G22      N/A
TRIBUNE KS     CLEAR     72  48  43 S18G24    29.77S
KIT CARSON CO    N/A     62  34  35 CALM        N/A
YUMA CO        FAIR      52  34  50 S8        29.68S
$$




USA.gov is the U.S. government's official web portal to all federal, state and local government web resources and services.